Погода в Сёйке

Россия / Республика Алтай     51°53′01″N   86°44′00″E
темп.,
°C
ветер,
м/с
пор.,
м/с
влажн.,
%
обл.,
%
осадки,
мм/ч
давл.,
гПа
погр.,
м
28 июня, вт
вт2801:00+17з3797100 0.7 1002379
04:00+13зсз61398100 7.0 1005831
07:00+12з2997100 8.6 1009708
10:00+14зсз137969 0.1 1011798
13:00+17сз225956 0.3 10101093
16:00+19сз225599 0.0 10091248
19:00+19с115521 0.0 10091221
22:00+13вюв11840 0.0 100910
29 июня, ср
ср2901:00+11юв21920 0.0 100915
04:00+10юв11968 0.0 100813
07:00+13юв12800 0.0 1007125
10:00+22юв12530 0.0 1005571
13:00+28ююв14320 0.0 10031593
16:00+30в2623100 0.0 9992968
19:00+27вюв2545100 0.0 997176
22:00+21з2256100 0.0 99822
30 июня, чт
чт3001:00+18ю2260100 0.0 99816
04:00+15з2385100 0.3 100089
07:00+12зсз2397100 1.0 1003395
10:00+12сз2395100 0.8 1005553
13:00+14сз1192100 2.4 1005714
16:00+14сз1196100 1.6 1005521
19:00+14зсз009697 2.3 1005169
22:00+13юв119866 0.2 100624
1 июля, пт
пт101:00+12юв119837 0.3 100511
04:00+12ююв119796 0.0 100511
07:00+13юз1196100 0.0 100562
10:00+17сз2278100 0.1 1005655
13:00+15зсз239195 1.0 1006469
16:00+17з247689 1.1 1006885
19:00+17юз127491 1.3 1006426
22:00+14зюз118999 0.3 100811
2 июля, сб
сб201:00+11зюз119289 0.4 100910
04:00+12ююз118797 0.0 100911
07:00+13ю128687 0.0 100991
10:00+20юз02435 0.0 10081342
13:00+22зсз2335100 0.0 10062474
16:00+19зсз2355100 0.0 1007568
19:00+19зсз125299 0.0 10061374
22:00+13юв117953 0.0 100611